ボリソフ彗星

C/2014 Q3 ( Borisov )

English version
Home page
Updated on May 31, 2015

---------------------------------------------------------------------

・ プロフィール

発見日 2014年8月22日
発見光度 17.0等
発見者 G. Borisov (Observatory MARGO, Nauchnij)

・ 写真集

・ 軌道要素

Epoch 2014 Dec. 9.0 TT = JDT 2457000.5
T 2014 Nov. 19.06919 TT                                 MPCW
q   1.6474086            (2000.0)            P               Q
n   0.00649966     Peri.   47.38204     +0.30544941     -0.33314132
a  28.4364539      Node    63.12950     +0.26171341     -0.87135094
e   0.9420670      Incl.   89.94883     +0.91553632     +0.36022826
P 152
From 689 observations 2014 Aug. 22-2015 Feb. 27, mean residual 0".5.

・ 星図

・ 光度変化

        m1 = -3.5 + 5 logΔ + 65 log r(t + 12)

---------------------------------------------------------------------

軌道要素はM.P.E.C. 2015-E14に掲載されたものです。
星図はステラナビゲータ Ver.8 (アストロアーツ) で作成したものです。
光度グラフはComet for Windowsで作成したものです。

---------------------------------------------------------------------

Copyright(C) Seiichi Yoshida (comet@aerith.net). All rights reserved.